Location: DARK SKY Beskydy - Park tmavé oblohy, www.darkskybeskydy.cz
(49.4926°N, 18.5016°E)
Time: 01:24:43
(UTC+02:00)

Vanguard 1 - Pass Details

Date: 29 February 2024
Orbit: 653 x 3825 km, 34.2° (Epoch: 22 April)

Event Time Altitude Azimuth Distance (km) Brightness Sun altitude
Rises 21:45:16 0° 262° (W) 5,866 14.4 -39.6°
Reaches altitude 10° 21:48:44 10° 256° (WSW) 5,221 14.0 -40.0°
Enters shadow 22:03:28 47° 196° (SSW) 4,120 12.8 -41.6°
Maximum altitude 22:04:22 47° 190° (S) 4,157 - -41.7°
Drops below altitude 10° 22:25:38 10° 127° (SE) 6,902 - -43.7°
Sets 22:31:11 0° 122° (ESE) 7,816 - -44.2°
